Lake Harding Weather Center

Moon Phase Calendar



Lake Harding Water Level
Online Cameras

 


      

Current Conditions in Valley
9/16/2021 11:40:58 AM

73°F
Feels Like 74
Clouds
Humidity
84%
Pressure
30.03"
Wind
7.4 mph (ESE)
Dew Point
68°F
UV Index
1/10 (Low)
Visibility
6 mi

Hourly Forecast

Date & Time Thu, Sep 16
11:00 AM
Thu, Sep 16
12:00 PM
Thu, Sep 16
1:00 PM
Thu, Sep 16
2:00 PM
Thu, Sep 16
3:00 PM
Thu, Sep 16
4:00 PM
Thu, Sep 16
5:00 PM
Thu, Sep 16
6:00 PM
Thu, Sep 16
7:00 PM
Thu, Sep 16
8:00 PM
Thu, Sep 16
9:00 PM
Thu, Sep 16
10:00 PM
Thu, Sep 16
11:00 PM
Fri, Sep 17
12:00 AM
Fri, Sep 17
1:00 AM
Fri, Sep 17
2:00 AM
Fri, Sep 17
3:00 AM
Fri, Sep 17
4:00 AM
Fri, Sep 17
5:00 AM
Fri, Sep 17
6:00 AM
Fri, Sep 17
7:00 AM
Fri, Sep 17
8:00 AM
Fri, Sep 17
9:00 AM
Fri, Sep 17
10:00 AM
Fri, Sep 17
11:00 AM
Fri, Sep 17
12:00 PM
Fri, Sep 17
1:00 PM
Fri, Sep 17
2:00 PM
Fri, Sep 17
3:00 PM
Fri, Sep 17
4:00 PM
Fri, Sep 17
5:00 PM
Fri, Sep 17
6:00 PM
Fri, Sep 17
7:00 PM
Fri, Sep 17
8:00 PM
Fri, Sep 17
9:00 PM
Fri, Sep 17
10:00 PM
Fri, Sep 17
11:00 PM
Sat, Sep 18
12:00 AM
Sat, Sep 18
1:00 AM
Sat, Sep 18
2:00 AM
Sat, Sep 18
3:00 AM
Sat, Sep 18
4:00 AM
Sat, Sep 18
5:00 AM
Sat, Sep 18
6:00 AM
Sat, Sep 18
7:00 AM
Sat, Sep 18
8:00 AM
Sat, Sep 18
9:00 AM
Sat, Sep 18
10:00 AM
Condition
Rain

Clouds

Clouds

Rain

Rain

Rain

Rain

Rain

Rain

Clouds

Clouds

Clouds

Clouds

Clouds

Clouds

Clouds

Clouds

Clouds

Clouds

Clouds

Rain

Rain

Rain

Rain

Clouds

Clouds

Rain

Clouds

Rain

Rain

Rain

Rain

Rain

Rain

Rain

Clouds

Clouds

Rain

Clouds

Clouds

Clouds

Clouds

Rain

Clouds

Rain

Rain

Rain

Rain
Temperature 73°F73°F73°F72°F72°F74°F74°F72°F71°F70°F70°F70°F70°F69°F69°F69°F69°F69°F69°F69°F69°F69°F70°F70°F72°F73°F73°F75°F77°F78°F79°F79°F75°F72°F72°F71°F71°F71°F70°F70°F70°F70°F70°F70°F70°F70°F70°F70°F
Feels Like 74°F74°F74°F74°F74°F75°F75°F74°F72°F71°F71°F71°F71°F71°F70°F70°F70°F70°F70°F70°F70°F70°F71°F72°F73°F74°F75°F77°F79°F79°F79°F80°F77°F74°F73°F73°F72°F72°F72°F72°F72°F72°F71°F71°F71°F71°F71°F72°F
Cloudiness 100%100%100%100%99%98%93%93%95%94%89%89%93%95%96%96%100%100%100%100%100%100%100%100%100%100%100%100%98%99%94%92%94%95%100%100%100%100%100%100%100%100%100%100%100%100%100%100%
Visibility 2 mi6 mi6 mi6 mi6 mi6 mi6 mi6 mi6 mi6 mi6 mi6 mi6 mi6 mi6 mi6 mi6 mi6 mi6 mi5 mi4 mi4 mi4 mi6 mi6 mi6 mi6 mi6 mi6 mi6 mi6 mi6 mi6 mi6 mi6 mi6 mi6 mi6 mi6 mi6 mi6 mi6 mi6 mi6 mi6 mi6 mi6 mi6 mi
Precipitation 99%80%80%100%81%88%90%84%77%76%7%1%1%2%3%3%4%0%0%0%38%29%58%66%66%62%54%54%82%96%96%96%98%95%69%61%57%57%64%60%54%52%52%55%60%82%97%98%
Humidity 87%84%87%89%91%90%91%94%95%97%97%97%96%97%97%97%98%98%98%98%98%98%98%97%95%93%91%87%82%81%78%79%90%96%97%97%97%98%98%98%98%98%98%98%98%98%98%98%
Dew Point 69°F68°F69°F69°F70°F70°F71°F70°F69°F69°F68°F68°F68°F68°F68°F68°F68°F68°F68°F68°F68°F68°F69°F69°F70°F70°F70°F71°F71°F72°F71°F71°F72°F71°F70°F70°F70°F70°F70°F69°F69°F69°F69°F69°F69°F69°F69°F69°F
Pressure 30.03"30.03"30.03"30.03"30"29.97"29.97"29.97"30"30"30.03"30.06"30.06"30.06"30.06"30.06"30.03"30.03"30.03"30.03"30.06"30.09"30.12"30.12"30.12"30.12"30.12"30.09"30.06"30.06"30.06"30.06"30.06"30.06"30.09"30.09"30.09"30.09"30.09"30.06"30.06"30.06"30.06"30.09"30.09"30.09"30.12"30.12"
Wind Speed 6.1 mph7.4 mph7.6 mph6.9 mph6.5 mph8 mph9.1 mph8.9 mph8.3 mph8.1 mph8.3 mph8.3 mph7.9 mph7.4 mph7 mph6.5 mph6.1 mph5.6 mph5.5 mph5.7 mph5.5 mph4.6 mph4.9 mph5.4 mph6.2 mph5.7 mph5 mph4.4 mph4 mph3.2 mph4.5 mph4.8 mph3.5 mph2.7 mph2.3 mph1.8 mph3.3 mph3.2 mph2.4 mph2.7 mph2 mph1 mph1.9 mph2.1 mph2.7 mph2.6 mph2 mph2 mph
Wind
Direction
103°
ESE
107°
ESE
109°
ESE
105°
ESE
92°
E
92°
E
95°
E
94°
E
94°
E
93°
E
95°
E
100°
E
104°
ESE
105°
ESE
107°
ESE
106°
ESE
102°
ESE
100°
E
99°
E
94°
E
98°
E
111°
ESE
109°
ESE
114°
ESE
116°
ESE
117°
ESE
117°
ESE
112°
ESE
113°
ESE
110°
ESE
85°
E
86°
E
97°
E
116°
ESE
135°
SE
145°
SE
128°
SE
126°
SE
120°
ESE
97°
E
113°
ESE
65°
ENE
42°
NE
32°
NNE
32°
NNE
35°
NE
36°
NE
59°
ENE

Daily Forecast

Date High Low Precip. Humidity
Today
Sep 16

Rain
74 °F
68 °F
100%
87%
Friday
Sep 17

Rain
79 °F
69 °F
98%
91%
Saturday
Sep 18

Rain
72 °F
70 °F
100%
97%
Sunday
Sep 19

Rain
73 °F
70 °F
100%
97%
Monday
Sep 20

Rain
79 °F
70 °F
100%
87%
Tuesday
Sep 21

Rain
81 °F
70 °F
83%
73%
Wednesday
Sep 22

Rain
82 °F
69 °F
96%
69%
Thursday
Sep 23

Rain
81 °F
66 °F
99%
69%
Friday
Sep 24

Rain
81 °F
67 °F
64%
65%
Saturday
Sep 25

Rain
78 °F
66 °F
100%
85%
Sunday
Sep 26

Rain
85 °F
64 °F
93%
54%
Monday
Sep 27

Rain
84 °F
66 °F
39%
53%
Tuesday
Sep 28

Clear
82 °F
65 °F
2%
54%
Wednesday
Sep 29

Clear
86 °F
65 °F
0%
41%
Thursday
Sep 30

Clouds
73 °F
57 °F
0%
43%
Friday
Oct 1

Clear
72 °F
50 °F
0%
31%

Temperature 8-14 Day Outlook



Precipitation 8-14 Day Outlook




Quick Links
Lake Harding News
Lake Harding Photos
Lake Harding Videos




About Us
Contact Us
Site Map
Search Site
Advertise With Us
   
www.LakeHardingNews.com
THE LAKE HARDING WEBSITE

Copyright 2021, Lakes Online
Privacy    |    Legal